SCP
0 0 0 0 0 0 0 0 0 5 3 6 4 3 4 5 3 2 2 2 3 3 2 2 2 2 1 0 0 0 0 0 1 1 0 0 0 0 0 1 1 1 1
0 0 0 0 0 0 0 0 0 1 3 2 5 3 2 3 2 2 2 1 2 2 3 3 2 1 1 0 0 0 0 0 1 1 1 0 0 0 -0 1 1 1 1
0 0 0 0 0 0 0 0 0 0 0 1 2 2 2 2 2 2 3 3 1 1 2 3 3 2 1 1 1 1 0 0 1 1 2 1 0 0 -0 0 1 1 1
0 0 0 0 0 0 0 0 0 0 0 0 1 3 1 1 1 2 1 2 1 2 1 1 3 3 2 1 1 1 0 1 1 1 2 0 1 0 0 -1 0 0 1
0 0 0 0 0 0 0 0 0 0 0 0 0 0 1 2 3 3 1 2 2 0 1 1 3 2 1 1 1 0 0 1 1 1 2 2 2 3 1 -0 0 1 1
0 0 0 0 0 0 0 0 0 0 0 0 0 0 0 1 1 1 1 2 3 2 1 1 0 1 2 1 1 1 1 1 1 1 1 0 0 0 0 0 0 1 1
0 0 0 0 0 0 0 0 0 0 0 0 0 0 0 0 0 1 1 1 0 1 1 1 1 2 1 1 0 0 -0 1 1 1 1 1 0 0 1 1 1 1 0
0 0 0 0 0 0 0 0 0 0 0 0 0 0 0 0 0 0 0 0 0 1 1 0 0 0 0 2 1 -1 -1 -0 0 0 2 2 2 2 2 2 1 1 1
0 0 0 0 0 0 0 0 0 0 0 0 0 0 0 0 0 0 0 0 0 0 0 1 0 0 0 1 0 -0 0 0 0 2 2 2 3 2 3 2 1 1 1
0 0 0 0 0 0 0 0 0 0 0 0 0 0 0 0 0 0 0 0 0 0 0 0 1 1 1 1 0 0 0 1 1 0 1 2 4 3 3 2 1 1 1
0 0 0 0 0 0 0 0 0 0 0 0 0 0 0 0 0 0 0 0 0 0 0 0 0 0 1 2 1 1 1 2 2 2 2 2 3 3 2 2 1 1 1
0 0 0 0 0 0 0 0 0 0 0 0 0 0 0 0 0 0 0 0 0 0 0 0 0 0 1 2 3 3 3 3 3 3 3 3 3 2 2 1 1 1 1
0 0 0 0 0 0 0 0 0 0 0 0 0 0 0 0 0 0 0 0 0 0 0 0 0 0 1 1 1 2 2 2 3 3 3 2 3 2 2 1 1 1 1
0 0 0 0 0 0 0 0 0 0 0 0 0 0 0 0 0 0 0 0 0 0 0 0 0 0 0 1 1 1 1 1 2 3 3 2 3 1 1 2 1 1 1
0 0 0 0 0 0 0 0 0 0 0 0 0 0 0 0 0 0 0 0 0 0 0 0 0 0 0 0 1 1 1 3 3 2 2 2 2 1 1 2 1 0 0
0 0 0 0 0 0 0 0 0 0 0 0 0 0 0 0 0 0 0 0 0 0 0 0 0 0 0 0 0 1 2 3 2 2 2 2 1 1 1 1 1 0 0
0 0 0 0 0 0 0 0 0 0 0 0 0 0 0 0 0 0 0 0 0 0 0 0 0 0 0 0 0 0 1 3 2 2 2 1 1 0 0 0 0 0 0
0 0 0 0 0 0 0 0 0 0 0 0 0 0 0 0 0 0 0 0 0 0 0 0 0 0 0 0 0 0 1 2 2 1 1 1 0 0 0 0 0 0 0
0 0 0 0 0 0 0 0 0 0 0 0 0 0 0 0 0 0 0 0 0 0 0 0 0 0 0 0 0 0 0 2 2 1 1 1 0 0 0 0 0 0 0
0 0 0 0 0 0 0 0 0 0 0 0 0 0 0 0 0 0 0 0 0 0 -0 0 0 0 0 0 0 0 1 2 1 0 0 1 0 0 0 0 0 0 0
0 0 0 0 0 0 0 0 0 0 0 0 0 0 0 0 0 0 0 0 0 -0 -0 -0 -0 0 0 1 0 0 1 1 1 0 0 0 0 0 0 0 0 0 0
0 0 0 0 0 0 0 0 0 0 0 0 0 0 0 0 0 0 0 0 0 -0 -0 -0 -0 -0 0 0 0 0 1 1 1 0 0 0 0 0 0 0 0 0 0
-0 0 0 -0 -0 0 0 0 0 0 0 0 0 0 0 0 0 0 0 -0 -0 -0 -0 -0 -0 -0 0 0 0 0 0 1 0 0 0 0 0 0 0 0 0 0 0
-0 -0 0 -0 -0 0 0 0 0 0 0 0 0 0 0 0 0 0 0 0 -0 0 0 -0 -0 -0 0 0 0 0 0 0 0 0 0 0 0 0 0 0 0 0 0
-0 -0 -0 0 0 0 0 0 0 0 0 0 -0 0 0 0 0 0 0 -0 0 0 0 -0 0 -0 0 0 0 0 0 0 0 0 0 0 0 0 0 0 0 0 0
-0 -0 -0 -0 -0 0 0 -0 -0 -0 -0 -0 -0 0 0 0 0 0 0 -0 0 0 0 0 0 0 0 0 0 0 0 0 0 0 0 0 0 0 0 0 -0 -0 -0
Wind_Speed_500mb
23 27 40 49 45 40 43 35 37 47 57 67 52 41 62 68 67 72 61 70 59 55 57 60 52 53 56 60 53 55 53 52 44 42 51 44 40 39 53 62 59 60 49
39 37 34 39 33 30 30 31 32 40 58 60 71 69 52 44 70 80 82 72 62 55 62 65 60 59 61 62 61 58 62 69 55 37 51 28 41 49 56 52 54 62 57
59 57 46 36 33 28 28 26 25 34 41 53 60 63 57 62 60 50 66 67 65 41 66 72 66 57 68 67 67 68 66 71 65 54 40 16 31 64 81 70 66 53 51
58 66 72 52 43 32 24 30 25 33 36 42 53 67 78 48 65 83 58 64 70 62 65 65 68 60 64 63 67 69 68 68 79 54 46 41 46 48 66 74 56 45 46
23 51 61 42 25 23 20 17 29 28 28 40 46 45 46 50 47 57 69 62 87 92 84 83 73 76 73 71 63 79 70 84 83 62 51 57 57 44 40 65 87 41 40
40 36 33 31 28 24 26 26 27 23 26 30 37 40 43 43 45 51 54 64 63 84 78 80 88 83 74 68 75 73 86 98 90 73 77 85 65 70 47 53 80 64 40
50 53 45 35 21 23 23 27 27 20 15 17 24 28 34 37 39 41 57 58 64 72 80 84 77 91 92 83 86 81 115 110 94 90 86 84 75 79 64 53 72 59 44
53 44 38 28 31 32 31 28 17 18 17 21 22 27 30 33 34 37 42 48 44 47 59 62 69 76 93 107 86 94 113 99 91 87 93 85 74 83 58 54 66 54 47
57 52 50 50 37 35 40 35 33 33 38 30 29 29 26 31 31 34 41 43 42 42 37 35 45 55 43 38 39 117 132 104 94 94 86 77 78 77 60 55 58 56 54
18 37 44 34 35 31 40 36 33 30 26 28 32 30 38 39 31 32 40 44 46 50 52 54 51 38 44 53 68 94 88 72 75 65 76 70 81 70 57 52 56 56 54
22 22 24 25 19 12 35 39 38 36 34 33 31 33 33 31 34 41 42 46 45 45 52 56 58 63 63 58 65 74 76 78 73 72 74 77 74 60 51 48 63 57 51
30 29 50 50 47 35 28 29 25 21 19 15 21 34 38 44 54 50 48 49 51 53 50 54 63 65 61 58 66 67 72 78 74 74 73 67 57 56 46 45 52 48 39
55 50 55 56 54 47 49 50 51 48 47 45 45 44 41 36 38 56 53 58 64 63 58 56 60 67 64 61 65 69 72 79 78 77 75 62 58 56 48 44 44 39 37
39 29 34 51 29 24 25 26 27 28 25 31 44 57 64 61 55 50 58 61 61 61 65 65 65 61 66 65 67 66 68 77 69 70 67 62 58 56 46 42 43 44 43
51 30 44 29 51 34 28 26 25 33 42 46 49 53 53 64 70 72 72 74 72 73 76 74 72 66 65 69 68 69 61 64 66 65 64 59 52 45 43 41 46 44 45
37 50 52 52 52 48 47 46 52 58 59 63 64 66 68 72 84 92 92 84 76 75 73 69 70 71 67 64 63 68 67 69 62 59 61 54 44 44 44 42 43 41 44
51 50 47 48 52 55 64 65 57 53 51 51 65 72 74 75 73 74 54 80 78 77 69 71 73 76 70 65 66 62 74 74 59 52 54 52 44 44 44 44 46 41 43
65 66 66 64 66 68 67 57 56 57 62 68 72 70 74 69 65 72 78 58 63 76 73 73 75 70 71 63 65 62 64 67 58 53 49 47 45 42 47 45 38 37 39
68 69 69 71 72 72 71 66 65 65 72 79 83 81 85 84 83 69 73 64 59 70 67 68 69 70 66 66 63 60 60 65 58 50 52 44 41 42 32 33 32 32 37
83 89 101 101 95 89 85 79 77 77 80 80 76 74 80 77 72 75 85 75 51 55 65 68 58 60 68 65 63 57 60 63 57 46 45 42 41 37 32 36 34 32 25
100 92 84 89 88 80 72 78 80 80 82 85 85 74 80 82 84 77 66 76 82 72 65 75 75 58 62 63 60 58 59 63 54 49 48 41 33 30 34 34 33 30 21
99 91 83 83 83 73 68 76 78 81 77 70 66 72 76 80 76 65 68 69 80 67 67 77 77 72 60 63 60 58 62 60 58 59 52 45 40 42 35 33 28 26 21
91 87 80 86 87 82 74 78 87 75 68 63 68 67 62 70 67 67 67 62 65 64 68 74 73 74 62 64 60 57 60 64 65 52 37 31 35 37 35 27 22 21 20
97 92 88 87 94 78 69 77 76 68 64 65 67 70 69 65 57 61 61 59 63 72 72 70 74 65 66 63 58 64 68 63 54 45 40 31 31 34 29 23 24 24 25
102 95 87 87 92 78 79 76 71 66 69 68 65 61 63 59 62 58 62 67 71 70 73 67 64 58 68 66 75 82 72 71 62 56 50 42 39 36 31 28 25 27 25
109 102 97 89 91 85 87 73 69 66 62 60 60 60 65 64 63 58 62 69 76 72 70 66 57 66 69 75 74 75 76 67 59 53 47 41 38 34 34 31 31 28 23
Wind_Direction_500mb
234 227 225 209 209 217 228 237 228 212 222 222 211 213 218 212 211 214 210 216 228 241 245 254 253 254 253 250 249 258 259 259 274 273 288 289 304 318 325 309 289 283 283
222 211 185 192 193 201 216 226 225 224 220 226 226 232 220 222 227 226 219 224 227 238 249 257 257 255 260 253 253 251 258 260 262 266 277 300 302 309 324 316 299 284 276
208 199 192 188 185 191 211 223 229 231 226 227 235 231 229 232 232 226 225 230 243 238 260 257 258 261 254 250 256 263 262 267 268 261 246 258 298 328 314 314 298 282 267
211 205 207 181 166 171 190 238 260 242 238 229 223 230 232 233 243 237 243 237 263 267 253 258 262 265 268 261 270 271 264 260 262 268 253 255 278 301 311 307 294 281 264
193 199 180 176 184 186 197 228 251 263 243 236 232 226 236 232 233 237 251 259 250 262 269 268 267 267 268 271 272 271 274 263 263 263 254 264 259 274 278 301 280 265 262
136 153 160 174 177 179 207 238 251 256 246 239 239 247 245 247 238 242 252 253 248 247 256 264 267 260 260 269 275 284 278 268 263 265 269 263 253 254 292 260 262 272 283
144 144 145 151 173 178 197 219 224 259 243 264 258 251 251 253 254 242 243 239 242 244 245 254 258 256 255 256 266 258 274 270 260 272 266 265 267 260 279 274 264 268 272
164 174 190 187 181 189 202 190 185 218 242 266 266 275 267 259 263 261 256 252 249 247 254 250 253 258 258 255 264 266 271 269 267 266 258 266 262 265 271 268 266 266 260
165 177 184 172 181 196 203 213 221 238 248 250 259 268 273 275 275 266 264 266 260 253 247 256 255 248 246 261 246 232 249 260 261 263 259 258 264 263 263 262 258 259 268
123 179 169 184 189 209 232 221 221 225 258 249 255 265 256 265 269 271 274 272 264 259 252 253 258 264 263 255 230 236 246 256 259 252 255 262 263 265 266 262 253 255 266
175 219 195 188 193 223 230 224 235 245 246 243 255 263 264 257 264 272 272 277 282 276 263 254 255 255 250 253 252 249 252 249 258 260 263 264 263 268 273 250 244 254 266
323 270 223 227 223 225 221 217 220 209 221 245 260 261 267 268 275 277 269 270 278 281 279 272 260 254 257 252 249 248 249 253 258 265 266 257 260 266 257 242 243 249 263
324 339 334 251 214 215 228 238 241 245 252 257 259 260 267 283 285 269 264 268 276 279 276 277 272 262 256 255 254 253 254 257 256 258 254 254 258 255 239 242 248 250 242
312 353 261 326 225 216 217 219 222 222 230 237 245 254 260 265 267 273 280 268 265 270 273 273 274 274 262 254 256 256 257 255 255 246 248 253 252 240 233 239 246 248 230
300 293 290 276 287 309 299 279 273 265 257 250 250 251 253 254 259 270 271 274 265 266 271 274 270 272 274 254 256 257 258 257 247 245 244 243 235 232 236 246 244 236 233
289 287 276 286 290 293 297 291 285 282 280 271 267 267 270 268 268 282 268 260 259 261 269 270 269 266 270 265 256 261 257 254 245 239 240 233 231 232 237 245 243 246 231
280 286 294 298 296 298 293 287 280 274 271 274 276 279 281 282 279 259 266 250 252 258 263 268 269 267 263 266 252 255 252 246 240 235 224 222 231 232 238 240 243 237 232
319 312 306 301 296 291 278 267 262 259 265 269 273 271 274 269 265 267 258 256 254 254 259 268 271 267 263 264 255 254 249 240 234 227 223 223 228 239 240 238 244 237 231
306 303 299 293 284 280 281 279 267 261 265 271 272 271 269 266 263 260 260 252 252 262 260 267 269 264 266 263 249 251 245 233 226 220 216 220 223 230 220 221 229 229 233
292 293 287 279 276 276 277 273 268 264 266 273 275 265 258 261 256 253 260 249 246 262 260 260 263 266 261 260 245 249 237 224 217 209 206 215 224 222 228 228 228 230 233
293 290 278 274 270 268 270 264 260 256 262 270 273 259 253 256 254 250 251 233 253 257 264 268 262 263 259 255 242 242 228 214 204 203 206 204 222 224 223 221 231 237 231
290 289 281 275 271 270 263 262 261 261 266 263 255 255 256 254 253 253 247 249 249 249 259 266 266 265 259 247 240 228 217 205 201 205 202 204 207 218 222 223 219 213 216
289 285 278 275 271 268 262 258 259 262 260 250 250 255 251 241 249 249 243 248 242 247 255 263 258 261 256 247 234 221 206 205 205 196 200 200 208 211 207 190 187 183 190
291 287 279 273 271 266 259 254 256 254 251 249 245 248 250 250 246 242 241 242 236 247 253 255 256 254 254 240 222 198 196 196 184 180 178 183 188 185 179 170 159 159 158
292 287 279 272 268 263 260 259 252 245 248 247 245 242 244 244 249 243 237 233 237 242 251 254 253 247 232 222 196 188 187 178 176 173 174 180 180 174 166 156 157 159 166
296 288 281 271 268 260 261 252 244 241 240 241 244 241 242 244 238 236 233 234 241 250 252 252 252 231 226 187 191 192 174 171 171 177 178 173 170 166 156 153 148 150 160
Wind_Speed_850mb
23 27 40 49 45 40 43 35 37 47 57 67 52 41 62 68 67 72 61 70 59 55 57 60 52 53 56 60 53 55 53 52 44 42 51 44 40 39 53 62 59 60 49
39 37 34 39 33 30 30 31 32 40 58 60 71 69 52 44 70 80 82 72 62 55 62 65 60 59 61 62 61 58 62 69 55 37 51 28 41 49 56 52 54 62 57
59 57 46 36 33 28 28 26 25 34 41 53 60 63 57 62 60 50 66 67 65 41 66 72 66 57 68 67 67 68 66 71 65 54 40 16 31 64 81 70 66 53 51
58 66 72 52 43 32 24 30 25 33 36 42 53 67 78 48 65 83 58 64 70 62 65 65 68 60 64 63 67 69 68 68 79 54 46 41 46 48 66 74 56 45 46
23 51 61 42 25 23 20 17 29 28 28 40 46 45 46 50 47 57 69 62 87 92 84 83 73 76 73 71 63 79 70 84 83 62 51 57 57 44 40 65 87 41 40
40 36 33 31 28 24 26 26 27 23 26 30 37 40 43 43 45 51 54 64 63 84 78 80 88 83 74 68 75 73 86 98 90 73 77 85 65 70 47 53 80 64 40
50 53 45 35 21 23 23 27 27 20 15 17 24 28 34 37 39 41 57 58 64 72 80 84 77 91 92 83 86 81 115 110 94 90 86 84 75 79 64 53 72 59 44
53 44 38 28 31 32 31 28 17 18 17 21 22 27 30 33 34 37 42 48 44 47 59 62 69 76 93 107 86 94 113 99 91 87 93 85 74 83 58 54 66 54 47
57 52 50 50 37 35 40 35 33 33 38 30 29 29 26 31 31 34 41 43 42 42 37 35 45 55 43 38 39 117 132 104 94 94 86 77 78 77 60 55 58 56 54
18 37 44 34 35 31 40 36 33 30 26 28 32 30 38 39 31 32 40 44 46 50 52 54 51 38 44 53 68 94 88 72 75 65 76 70 81 70 57 52 56 56 54
22 22 24 25 19 12 35 39 38 36 34 33 31 33 33 31 34 41 42 46 45 45 52 56 58 63 63 58 65 74 76 78 73 72 74 77 74 60 51 48 63 57 51
30 29 50 50 47 35 28 29 25 21 19 15 21 34 38 44 54 50 48 49 51 53 50 54 63 65 61 58 66 67 72 78 74 74 73 67 57 56 46 45 52 48 39
55 50 55 56 54 47 49 50 51 48 47 45 45 44 41 36 38 56 53 58 64 63 58 56 60 67 64 61 65 69 72 79 78 77 75 62 58 56 48 44 44 39 37
39 29 34 51 29 24 25 26 27 28 25 31 44 57 64 61 55 50 58 61 61 61 65 65 65 61 66 65 67 66 68 77 69 70 67 62 58 56 46 42 43 44 43
51 30 44 29 51 34 28 26 25 33 42 46 49 53 53 64 70 72 72 74 72 73 76 74 72 66 65 69 68 69 61 64 66 65 64 59 52 45 43 41 46 44 45
37 50 52 52 52 48 47 46 52 58 59 63 64 66 68 72 84 92 92 84 76 75 73 69 70 71 67 64 63 68 67 69 62 59 61 54 44 44 44 42 43 41 44
51 50 47 48 52 55 64 65 57 53 51 51 65 72 74 75 73 74 54 80 78 77 69 71 73 76 70 65 66 62 74 74 59 52 54 52 44 44 44 44 46 41 43
65 66 66 64 66 68 67 57 56 57 62 68 72 70 74 69 65 72 78 58 63 76 73 73 75 70 71 63 65 62 64 67 58 53 49 47 45 42 47 45 38 37 39
68 69 69 71 72 72 71 66 65 65 72 79 83 81 85 84 83 69 73 64 59 70 67 68 69 70 66 66 63 60 60 65 58 50 52 44 41 42 32 33 32 32 37
83 89 101 101 95 89 85 79 77 77 80 80 76 74 80 77 72 75 85 75 51 55 65 68 58 60 68 65 63 57 60 63 57 46 45 42 41 37 32 36 34 32 25
100 92 84 89 88 80 72 78 80 80 82 85 85 74 80 82 84 77 66 76 82 72 65 75 75 58 62 63 60 58 59 63 54 49 48 41 33 30 34 34 33 30 21
99 91 83 83 83 73 68 76 78 81 77 70 66 72 76 80 76 65 68 69 80 67 67 77 77 72 60 63 60 58 62 60 58 59 52 45 40 42 35 33 28 26 21
91 87 80 86 87 82 74 78 87 75 68 63 68 67 62 70 67 67 67 62 65 64 68 74 73 74 62 64 60 57 60 64 65 52 37 31 35 37 35 27 22 21 20
97 92 88 87 94 78 69 77 76 68 64 65 67 70 69 65 57 61 61 59 63 72 72 70 74 65 66 63 58 64 68 63 54 45 40 31 31 34 29 23 24 24 25
102 95 87 87 92 78 79 76 71 66 69 68 65 61 63 59 62 58 62 67 71 70 73 67 64 58 68 66 75 82 72 71 62 56 50 42 39 36 31 28 25 27 25
109 102 97 89 91 85 87 73 69 66 62 60 60 60 65 64 63 58 62 69 76 72 70 66 57 66 69 75 74 75 76 67 59 53 47 41 38 34 34 31 31 28 23
Wind_Direction_850mb
234 227 225 209 209 217 228 237 228 212 222 222 211 213 218 212 211 214 210 216 228 241 245 254 253 254 253 250 249 258 259 259 274 273 288 289 304 318 325 309 289 283 283
222 211 185 192 193 201 216 226 225 224 220 226 226 232 220 222 227 226 219 224 227 238 249 257 257 255 260 253 253 251 258 260 262 266 277 300 302 309 324 316 299 284 276
208 199 192 188 185 191 211 223 229 231 226 227 235 231 229 232 232 226 225 230 243 238 260 257 258 261 254 250 256 263 262 267 268 261 246 258 298 328 314 314 298 282 267
211 205 207 181 166 171 190 238 260 242 238 229 223 230 232 233 243 237 243 237 263 267 253 258 262 265 268 261 270 271 264 260 262 268 253 255 278 301 311 307 294 281 264
193 199 180 176 184 186 197 228 251 263 243 236 232 226 236 232 233 237 251 259 250 262 269 268 267 267 268 271 272 271 274 263 263 263 254 264 259 274 278 301 280 265 262
136 153 160 174 177 179 207 238 251 256 246 239 239 247 245 247 238 242 252 253 248 247 256 264 267 260 260 269 275 284 278 268 263 265 269 263 253 254 292 260 262 272 283
144 144 145 151 173 178 197 219 224 259 243 264 258 251 251 253 254 242 243 239 242 244 245 254 258 256 255 256 266 258 274 270 260 272 266 265 267 260 279 274 264 268 272
164 174 190 187 181 189 202 190 185 218 242 266 266 275 267 259 263 261 256 252 249 247 254 250 253 258 258 255 264 266 271 269 267 266 258 266 262 265 271 268 266 266 260
165 177 184 172 181 196 203 213 221 238 248 250 259 268 273 275 275 266 264 266 260 253 247 256 255 248 246 261 246 232 249 260 261 263 259 258 264 263 263 262 258 259 268
123 179 169 184 189 209 232 221 221 225 258 249 255 265 256 265 269 271 274 272 264 259 252 253 258 264 263 255 230 236 246 256 259 252 255 262 263 265 266 262 253 255 266
175 219 195 188 193 223 230 224 235 245 246 243 255 263 264 257 264 272 272 277 282 276 263 254 255 255 250 253 252 249 252 249 258 260 263 264 263 268 273 250 244 254 266
323 270 223 227 223 225 221 217 220 209 221 245 260 261 267 268 275 277 269 270 278 281 279 272 260 254 257 252 249 248 249 253 258 265 266 257 260 266 257 242 243 249 263
324 339 334 251 214 215 228 238 241 245 252 257 259 260 267 283 285 269 264 268 276 279 276 277 272 262 256 255 254 253 254 257 256 258 254 254 258 255 239 242 248 250 242
312 353 261 326 225 216 217 219 222 222 230 237 245 254 260 265 267 273 280 268 265 270 273 273 274 274 262 254 256 256 257 255 255 246 248 253 252 240 233 239 246 248 230
300 293 290 276 287 309 299 279 273 265 257 250 250 251 253 254 259 270 271 274 265 266 271 274 270 272 274 254 256 257 258 257 247 245 244 243 235 232 236 246 244 236 233
289 287 276 286 290 293 297 291 285 282 280 271 267 267 270 268 268 282 268 260 259 261 269 270 269 266 270 265 256 261 257 254 245 239 240 233 231 232 237 245 243 246 231
280 286 294 298 296 298 293 287 280 274 271 274 276 279 281 282 279 259 266 250 252 258 263 268 269 267 263 266 252 255 252 246 240 235 224 222 231 232 238 240 243 237 232
319 312 306 301 296 291 278 267 262 259 265 269 273 271 274 269 265 267 258 256 254 254 259 268 271 267 263 264 255 254 249 240 234 227 223 223 228 239 240 238 244 237 231
306 303 299 293 284 280 281 279 267 261 265 271 272 271 269 266 263 260 260 252 252 262 260 267 269 264 266 263 249 251 245 233 226 220 216 220 223 230 220 221 229 229 233
292 293 287 279 276 276 277 273 268 264 266 273 275 265 258 261 256 253 260 249 246 262 260 260 263 266 261 260 245 249 237 224 217 209 206 215 224 222 228 228 228 230 233
293 290 278 274 270 268 270 264 260 256 262 270 273 259 253 256 254 250 251 233 253 257 264 268 262 263 259 255 242 242 228 214 204 203 206 204 222 224 223 221 231 237 231
290 289 281 275 271 270 263 262 261 261 266 263 255 255 256 254 253 253 247 249 249 249 259 266 266 265 259 247 240 228 217 205 201 205 202 204 207 218 222 223 219 213 216
289 285 278 275 271 268 262 258 259 262 260 250 250 255 251 241 249 249 243 248 242 247 255 263 258 261 256 247 234 221 206 205 205 196 200 200 208 211 207 190 187 183 190
291 287 279 273 271 266 259 254 256 254 251 249 245 248 250 250 246 242 241 242 236 247 253 255 256 254 254 240 222 198 196 196 184 180 178 183 188 185 179 170 159 159 158
292 287 279 272 268 263 260 259 252 245 248 247 245 242 244 244 249 243 237 233 237 242 251 254 253 247 232 222 196 188 187 178 176 173 174 180 180 174 166 156 157 159 166
296 288 281 271 268 260 261 252 244 241 240 241 244 241 242 244 238 236 233 234 241 250 252 252 252 231 226 187 191 192 174 171 171 177 178 173 170 166 156 153 148 150 160